RH
78 84 82 66 25 23 40 48 26 38 21 48 13 6 1 1 2 3 3 3 3 3 3 3 2 2 2 2 3 4 5 6 5 6 4 4 4 4 8 11 12 10 9 8 7
78 88 69 47 20 26 34 29 34 37 27 22 20 14 1 1 2 2 3 3 3 3 3 2 2 2 2 2 4 7 9 10 10 10 10 10 10 10 12 12 12 10 10 8 8
78 81 62 33 17 14 19 17 28 27 24 21 18 12 2 1 2 2 3 3 2 3 2 2 2 1 1 1 4 8 9 10 10 10 10 10 10 10 11 13 8 10 8 8 9
93 89 72 49 32 18 12 10 11 12 16 17 19 18 2 1 2 2 2 2 2 2 2 2 2 1 1 1 2 6 8 9 8 8 8 8 8 8 10 8 7 10 8 8 7
90 85 49 47 46 30 12 9 27 20 8 11 10 4 2 2 2 2 3 2 2 2 2 2 1 1 1 1 1 2 7 8 8 7 8 7 7 7 7 4 7 8 6 6 6
90 90 33 12 10 10 8 9 22 15 14 17 11 5 4 2 2 2 2 3 3 2 2 2 2 1 1 2 2 2 2 5 7 7 7 8 8 7 6 6 6 6 5 5 5
74 95 46 13 10 6 5 6 8 11 12 7 6 5 4 2 2 2 2 2 2 3 2 2 2 1 1 1 2 2 2 3 6 7 7 8 10 7 6 7 6 5 5 4 5
68 89 51 14 10 8 6 7 8 10 10 8 7 6 4 3 2 2 2 2 2 2 2 2 2 2 1 1 2 2 2 2 4 6 9 8 11 8 7 6 6 5 4 4 5
69 70 70 51 8 7 7 8 11 13 10 8 7 5 5 4 3 3 2 2 2 2 2 2 2 2 2 2 2 2 2 2 2 3 4 8 12 9 6 6 8 6 5 5 6
62 75 66 55 34 12 13 13 14 12 9 8 6 5 6 4 4 4 3 2 2 1 2 2 2 2 2 2 2 2 2 2 2 2 2 6 10 12 8 6 7 9 7 6 7
47 40 68 50 43 16 27 76 36 17 14 11 10 8 7 6 4 3 3 3 2 2 2 2 2 2 2 2 2 2 2 2 2 2 2 5 10 9 11 9 8 8 9 8 8
33 18 35 26 17 37 69 94 76 20 16 14 13 10 8 7 6 4 3 3 2 2 2 2 2 2 2 3 3 2 2 2 2 3 3 5 14 12 13 13 12 9 9 10 10
25 45 23 26 43 68 68 65 33 21 18 16 14 9 7 6 5 5 5 4 4 3 4 4 3 3 3 3 3 3 4 4 4 5 5 6 15 19 16 16 15 14 12 11 10
50 42 75 98 77 83 65 26 22 22 20 23 19 13 10 9 7 6 6 6 6 7 8 7 7 8 8 8 8 8 9 10 11 11 13 14 14 19 17 16 17 17 16 15 16
71 62 66 72 73 36 22 27 28 21 43 31 18 18 16 15 15 13 14 14 14 15 16 14 16 16 16 16 16 17 17 18 19 19 18 19 19 20 18 17 19 19 18 20 20
64 68 73 75 44 18 42 36 25 56 24 19 20 19 17 15 16 17 17 18 19 21 21 21 21 21 21 21 21 21 21 20 20 20 19 18 18 20 18 18 17 16 18 18 19
55 59 46 32 22 21 56 32 58 32 20 18 19 19 17 18 18 18 17 18 18 19 20 22 22 21 22 22 22 22 21 19 16 14 14 14 14 18 18 17 16 18 17 19 21
45 32 24 34 25 26 33 27 19 19 21 22 22 20 18 19 20 20 19 18 18 18 18 17 16 16 16 16 15 15 15 17 18 21 24 25 26 30 32 29 30 29 29 27 28
62 45 27 36 52 59 30 41 27 22 23 23 21 19 20 20 18 17 17 16 14 14 14 14 16 18 22 25 27 28 30 31 34 36 40 43 44 45 52 49 47 51 52 48 53
36 33 32 34 29 25 23 22 22 24 22 21 20 20 20 17 14 13 11 12 14 19 25 29 32 34 34 35 37 42 51 54 56 56 56 56 55 45 46 43 41 38 37 37 46
55 34 33 39 29 27 32 25 21 20 20 19 19 17 15 12 11 11 14 19 27 35 39 42 43 43 43 44 49 52 55 55 51 46 43 39 37 39 38 45 36 26 7 24 42
72 42 55 74 54 24 20 21 21 20 18 18 16 14 11 11 15 20 27 32 35 38 42 46 46 49 50 50 50 48 43 43 44 49 42 29 12 13 15 20 29 10 4 9 12
86 72 66 38 30 21 21 20 19 18 17 14 12 14 20 25 30 34 38 41 42 47 45 40 34 33 33 32 28 23 20 14 8 5 7 8 8 14 13 9 8 7 6 6 5
64 35 33 26 23 22 20 18 17 14 13 16 23 28 33 38 41 40 39 36 36 36 27 12 6 5 4 6 5 5 6 5 4 5 9 14 14 14 12 10 10 10 9 8 6
86 81 58 21 20 18 15 14 17 21 27 34 40 45 43 36 36 35 35 29 17 9 11 18 23 24 23 23 22 21 17 20 20 19 16 12 12 12 9 10 8 8 7 6 5
27 22 19 18 19 18 18 24 35 46 53 55 51 40 38 40 35 21 6 7 18 30 34 32 29 23 18 19 11 7 18 14 10 14 9 8 8 7 9 10 11 9 8 6 6
66 48 45 41 39 42 48 56 60 57 53 48 39 42 38 18 6 7 23 37 39 35 20 10 9 7 7 8 6 7 11 11 10 10 10 10 11 12 13 13 13 12 12 11 7
Wind_Speed
21 25 24 23 23 20 18 17 14 12 11 9 11 11 13 14 15 13 11 9 8 7 7 6 6 7 8 9 10 11 12 13 13 14 15 15 14 14 13 14 15 16 15 16 15
20 23 23 22 23 21 20 19 16 14 14 12 9 11 13 16 17 15 13 11 10 10 10 9 9 9 11 11 12 13 13 13 15 15 15 16 17 15 16 17 19 17 15 16 18
26 23 24 21 21 21 20 22 19 18 16 12 11 11 15 18 19 18 15 14 13 13 13 12 11 11 14 13 13 14 14 14 14 16 16 16 17 17 18 20 18 15 16 18 18
24 25 25 24 23 19 20 21 20 17 17 14 13 17 19 18 21 19 18 16 15 16 15 14 13 13 14 13 13 15 15 15 15 15 15 15 15 15 18 21 13 16 19 17 19
24 25 24 24 25 23 22 22 21 19 18 15 15 17 17 20 23 21 20 19 18 18 17 16 16 14 16 14 14 15 17 16 17 15 16 15 16 15 24 15 15 20 19 17 19
20 29 25 23 22 21 23 24 22 21 18 16 16 18 18 20 24 21 22 21 21 20 19 18 18 18 18 18 17 16 18 19 19 19 16 16 18 20 22 20 18 20 21 19 19
20 28 26 22 21 19 22 23 22 21 18 15 14 18 19 20 25 23 22 24 23 23 22 21 21 21 20 20 20 20 18 20 21 21 18 16 18 24 22 20 21 21 21 21 20
18 22 27 20 21 19 21 22 20 19 15 14 15 19 20 22 23 23 24 24 26 25 25 23 23 25 23 22 22 22 21 22 20 24 19 18 13 26 27 23 21 21 24 21 22
22 22 21 21 17 19 19 20 20 15 15 14 17 21 22 23 21 21 24 25 27 27 27 26 24 26 26 24 24 23 23 24 26 23 25 21 16 22 28 28 25 23 23 25 25
19 22 20 19 18 19 18 16 14 14 13 13 18 21 21 20 20 21 22 24 26 26 26 27 26 28 27 27 26 27 26 25 27 27 24 24 21 22 26 27 28 25 24 27 26
20 20 25 19 22 18 15 16 14 13 12 15 18 19 16 17 18 18 20 21 24 25 26 25 27 29 30 30 29 30 29 29 28 28 27 26 23 27 25 26 28 29 27 27 29
22 18 22 22 19 18 23 21 15 14 17 17 17 17 14 15 15 15 17 19 21 23 24 23 25 27 28 30 29 30 30 30 28 27 27 27 22 24 26 28 25 27 29 28 29
20 21 21 21 25 29 29 18 17 18 17 15 13 13 13 12 13 14 15 16 17 19 19 19 22 23 24 26 27 28 30 28 30 26 25 22 16 23 26 29 26 26 29 29 30
26 23 20 20 26 27 20 19 19 17 15 13 13 13 10 11 11 11 12 12 13 13 14 15 18 18 20 22 23 21 25 25 24 24 22 20 14 23 26 34 30 28 27 29 30
31 27 22 21 21 19 21 21 18 17 14 13 14 11 10 9 9 9 10 11 11 11 13 14 15 15 17 19 20 21 22 24 25 25 24 22 22 22 23 32 36 34 31 30 29
27 29 28 26 27 24 22 22 19 18 19 14 13 12 12 13 12 12 13 13 12 14 16 18 17 18 19 21 23 25 26 28 28 29 29 26 26 18 26 28 34 35 36 34 33
24 26 25 26 26 25 23 22 23 23 17 17 17 16 15 13 13 13 15 16 16 16 18 19 20 21 22 23 24 26 27 31 34 34 34 32 30 24 29 32 34 37 36 35 35
22 22 23 24 24 24 22 24 22 20 19 18 17 16 17 16 15 16 18 19 20 20 21 21 23 22 24 26 27 28 29 30 35 33 34 36 34 28 30 32 38 43 41 37 35
29 28 26 28 25 26 25 23 22 21 20 20 21 21 20 19 19 19 20 22 22 22 23 23 21 22 24 25 27 27 28 30 35 37 40 40 41 37 34 36 42 47 50 47 42
28 27 26 26 25 26 26 25 23 23 24 24 23 21 22 21 22 21 22 21 22 23 24 25 25 22 25 28 29 31 31 35 39 41 45 44 46 50 37 43 45 47 52 50 42
30 29 28 28 27 27 25 25 27 27 26 25 23 23 24 25 23 23 22 23 24 26 28 31 30 31 29 31 34 34 36 39 41 42 46 48 45 45 46 39 47 49 47 48 46
34 31 31 29 28 28 28 28 28 27 27 25 24 24 24 24 23 25 25 27 29 30 32 34 40 38 38 38 39 38 38 39 43 41 47 46 36 36 42 40 42 48 44 46 44
35 31 30 33 34 30 30 30 28 27 28 25 24 24 24 25 27 28 29 31 33 35 37 38 42 40 39 39 39 37 35 33 34 35 30 32 31 34 35 40 45 48 48 48 48
36 35 33 33 31 31 31 30 27 28 28 26 25 26 28 30 33 34 33 33 34 34 36 34 30 28 28 24 24 25 27 25 25 26 29 31 32 33 37 40 41 43 46 47 49
31 29 32 33 31 32 33 28 29 28 28 28 28 31 33 33 33 34 34 34 31 24 24 23 21 22 25 21 23 24 23 24 27 29 32 30 35 35 41 43 45 46 47 48 49
35 34 34 33 33 33 32 28 30 33 32 32 33 34 33 33 34 33 23 19 21 22 25 23 19 19 18 20 21 24 22 27 29 30 35 36 36 43 42 44 42 45 45 46 47
35 35 36 34 33 34 33 33 34 37 35 35 34 34 34 31 23 20 21 23 24 20 20 19 21 21 17 22 24 23 26 31 30 34 37 38 38 45 47 48 47 47 47 47 48
Wind_Direction
238 231 224 222 225 221 227 232 240 242 249 262 278 288 238 221 215 208 210 222 231 247 256 265 281 288 297 304 306 302 297 297 292 285 282 286 278 271 272 273 275 270 273 272 269
229 221 220 224 223 227 230 235 231 247 235 231 240 264 245 227 220 215 219 230 241 250 259 264 278 291 293 300 307 305 303 309 298 294 285 281 279 273 272 275 268 272 275 268 265
223 217 218 221 224 230 230 242 235 232 238 229 248 264 241 233 226 221 224 233 242 252 260 268 279 290 296 301 304 307 318 314 307 302 293 283 279 278 273 269 267 277 269 270 269
220 224 224 224 224 229 235 234 224 222 229 239 238 255 242 235 234 231 230 235 241 252 259 267 277 289 296 305 298 299 314 319 312 308 297 291 281 279 271 264 275 273 269 268 276
226 224 221 222 226 227 232 223 224 228 233 238 251 260 241 239 236 235 238 239 245 253 259 268 277 285 295 306 306 300 304 310 314 310 304 294 292 279 270 289 275 266 273 274 277
238 225 218 221 221 225 227 222 223 230 232 241 255 261 257 248 244 238 241 243 246 251 258 266 275 281 291 301 306 305 304 303 310 314 307 309 295 286 285 287 274 272 276 274 271
241 223 217 225 224 223 227 225 225 233 238 245 256 261 263 258 250 246 244 249 251 254 259 263 270 275 283 293 303 303 306 303 304 308 316 312 296 293 295 292 286 279 277 273 272
238 234 207 227 220 222 223 224 225 234 240 247 258 268 269 262 256 252 249 250 253 256 261 265 269 276 280 288 296 297 300 303 300 302 313 312 295 292 296 293 292 286 280 278 272
230 224 215 212 218 215 220 223 225 234 247 252 262 267 265 265 263 260 256 255 255 258 260 266 270 273 279 284 290 293 299 299 298 302 305 309 314 289 289 292 298 290 281 276 272
229 226 209 211 221 215 218 225 227 237 248 261 269 267 268 267 270 268 265 262 262 263 263 267 270 273 278 283 289 293 298 297 297 300 301 306 309 295 295 297 292 289 285 281 277
224 217 202 206 218 210 212 233 242 253 261 261 263 266 267 276 274 271 268 268 265 266 268 271 275 276 279 282 286 289 295 296 299 301 301 302 303 297 295 291 287 289 285 278 278
225 214 213 212 207 211 229 252 238 252 257 258 260 268 277 277 278 278 274 271 271 271 274 277 277 281 281 283 287 290 292 294 297 297 297 297 300 294 296 297 294 288 286 283 281
222 213 215 213 224 240 248 238 238 244 247 259 270 276 277 280 277 277 277 275 275 274 277 279 282 283 284 286 289 291 292 294 296 297 299 296 296 296 297 294 295 291 290 290 287
227 231 223 231 235 241 215 229 236 243 251 264 275 275 277 275 274 278 279 280 280 279 284 284 285 286 288 291 293 295 295 300 304 304 305 303 300 300 299 298 300 295 293 293 293
234 230 220 232 236 223 227 228 237 247 255 259 261 261 260 265 272 270 275 275 273 279 284 284 286 289 293 295 297 300 299 301 302 301 303 301 302 300 297 295 300 302 303 300 297
230 233 240 239 236 224 223 233 237 240 247 251 257 255 260 269 269 268 270 276 282 287 289 292 294 296 296 297 298 299 302 301 301 302 301 301 303 307 298 295 293 297 299 302 302
222 224 225 223 223 220 220 232 236 239 246 250 256 257 259 260 267 273 279 283 285 287 289 292 297 298 299 299 301 303 306 306 308 311 308 309 308 311 306 301 300 297 297 298 298
218 221 217 220 221 218 223 231 233 239 243 249 254 257 259 263 267 274 279 282 284 286 288 294 296 298 299 300 302 302 304 305 306 308 306 309 311 313 309 305 304 299 298 297 295
216 220 220 217 217 227 233 226 235 241 242 245 250 254 260 267 272 273 276 282 288 292 294 298 298 300 300 302 300 301 301 302 302 303 303 302 301 306 313 310 300 297 297 296 301
216 218 218 223 222 226 226 231 237 239 243 245 252 260 266 266 271 275 281 284 287 291 293 295 295 296 296 297 297 300 303 305 305 305 304 306 307 312 314 307 300 299 295 296 295
222 223 222 227 229 233 235 237 240 240 244 249 255 260 266 272 276 279 280 280 285 287 292 294 295 297 296 293 293 295 299 298 297 299 300 302 309 312 308 311 303 302 308 305 301
227 221 224 230 226 239 238 239 241 244 247 252 256 263 266 271 273 277 279 282 286 289 292 296 298 298 298 295 292 294 293 295 296 299 300 304 310 318 311 310 304 303 322 315 309
219 219 229 234 238 241 241 242 244 247 252 254 257 260 265 270 274 275 280 284 289 292 295 296 295 297 296 296 296 293 294 299 302 300 312 303 322 308 304 305 305 316 316 314 313
238 242 236 241 241 242 243 243 248 248 251 255 259 264 269 273 276 281 284 288 290 293 292 293 296 301 301 307 301 304 311 315 301 305 305 321 314 316 312 321 318 315 315 314 312
234 228 237 245 243 244 245 244 246 248 253 258 263 269 272 276 280 284 288 290 288 284 287 294 302 301 301 308 303 309 313 313 314 315 314 322 319 314 323 321 323 322 320 316 310
238 238 240 238 237 239 240 242 248 252 256 262 267 268 275 279 280 285 281 276 280 283 287 292 300 302 312 309 314 318 309 312 312 313 314 317 317 317 318 318 319 316 317 317 314
240 238 239 235 238 242 246 250 253 259 262 265 267 272 273 275 271 269 275 278 279 278 281 291 295 300 318 305 307 312 315 315 314 316 316 317 315 318 316 317 319 315 315 317 317